User: anonymous   Login
Location: Huntington Beach
(33.6600°N, 117.9980°W)
Time: 09:41:14
(UTC-08:00)
Language:

HST - Orbit

View from above orbital plane
View from above orbital plane
View from above satellite
View from above satellite

Ground track
Ground track

The orbit data is extracted from the following two-line orbital elements,

1 20580U 90037B   14324.62363573  .00004456  00000-0  28493-3 0  1601
2 20580 028.4705 088.2914 0003188 150.7650 329.6566 15.06206619148320
Epoch (UTC): 20 November 2014 14:58:02
Eccentricity: 0.0003188
inclination: 28.4705°
perigee height: 545 km
apogee height: 550 km
right ascension of ascending node: 88.2914°
argument of perigee: 150.7650°
revolutions per day: 15.06206619
mean anomaly at epoch: 329.6566°
orbit number at epoch: 14832

The dashed part of the orbit path shows where the satellite is in the earth's shadow,  

DLR